Weather History for Homiel, Belarus

Change the Weather History Date:

Thursday, January 31, 2013

  Actual Average Record
Temperature  
Mean Temperature 30 °F -  
Max Temperature 33 °F 28 °F - ()
Min Temperature 27 °F 16 °F - ()
Degree Days  
Heating Degree Days 35    
Moisture  
Dew Point 29 °F    
Average Humidity 95    
Maximum Humidity 100    
Minimum Humidity 77    
Precipitation  
Precipitation 0.28 in 0.04 in - ()
Sea Level Pressure  
Sea Level Pressure 29.55 in    
Wind  
Wind Speed 11 mph ()    
Max Wind Speed 16 mph    
Max Gust Speed 22 mph    
Visibility 1.5 miles    
Events Fog , Rain , Snow    
T = Trace of Precipitation, MM = Missing Value Source: Averaged Metar Reports

Daily Weather History Graph

Daily Weather History Graph

Search for Another Location

Airport:

Trip Planner

Search our weather history database for the weather conditions in past years. The results will help you decide how hot, cold, wet, or windy it might be!

Date:

Astronomy

Jan. 31, 2013 Rise Set
Actual Time 8:39 AM FET 5:40 PM FET
Civil Twilight 8:01 AM FET 6:17 PM FET
Nautical Twilight 7:20 AM FET 6:58 PM FET
Astronomical Twilight 6:40 AM FET 7:38 PM FET
Moon 11:07 PM FET (1/31) 9:47 AM FET (1/31)
Length of Visible Light 10h 15m
Length of Day
9h 01m
Waning Gibbous, 82% of the Moon is Illuminated
Jan 31
Waning Gibbous
Feb 3
Last Quarter
Feb 10
New
Feb 17
First Quarter
Feb 25
Full

Hourly Weather History & Observations

Time (FET) Temp. Windchill Dew Point Humidity Pressure Visibility Wind Dir Wind Speed Gust Speed Precip Events Conditions
12:00 AM 28 °F - 24 °F 77% 29.80 in 6 mi SSE 8.9 mph - -   Mostly Cloudy
12:00 AM 26.6 °F 14.4 °F 21.2 °F 80% 29.77 in 5.6 mi SSE 15.7 mph - N/A   Overcast
1:00 AM 26.6 °F 16.4 °F 23.0 °F 86% 29.74 in 5.0 mi SSE 11.2 mph 17.9 mph N/A   Overcast
2:00 AM 26.6 °F 15.3 °F 23.0 °F 86% 29.71 in 5.0 mi SSE 13.4 mph 20.1 mph N/A   Overcast
3:00 AM 29 °F - 25 °F 78% 29.70 in 6 mi SSE 11.2 mph - -   Mostly Cloudy
3:00 AM 26.6 °F 16.4 °F 24.8 °F 93% 29.65 in 5.0 mi SSE 11.2 mph 17.9 mph N/A   Overcast
3:15 AM 26.6 °F 16.4 °F 24.8 °F 93% 29.65 in 3.7 mi SSE 11.2 mph 17.9 mph N/A Snow Light Snow Showers
3:25 AM 26.6 °F 14.4 °F 24.8 °F 93% 29.65 in 1.7 mi South 15.7 mph 22.4 mph N/A Snow Snow Showers
3:40 AM 26.6 °F 15.3 °F 24.8 °F 93% 29.65 in 0.8 mi SSE 13.4 mph 20.1 mph N/A Snow Snow Showers
4:00 AM 28.4 °F 17.6 °F 26.6 °F 93% 29.65 in 0.7 mi SSE 13.4 mph 20.1 mph N/A Snow Snow Showers
4:30 AM 28.4 °F 16.7 °F 26.6 °F 93% 29.65 in 0.6 mi SSE 15.7 mph 22.4 mph N/A Snow Heavy Snow
5:00 AM 28.4 °F 17.6 °F 26.6 °F 93% 29.59 in 0.7 mi SSE 13.4 mph 20.1 mph N/A Snow Snow
5:30 AM 28.4 °F 16.7 °F 26.6 °F 93% 29.56 in 1.4 mi South 15.7 mph 22.4 mph N/A Snow Snow
5:45 AM 28.4 °F 16.7 °F 26.6 °F 93% 29.56 in 0.8 mi South 15.7 mph 22.4 mph N/A Snow Snow
6:00 AM 29 °F - 27 °F 87% 29.60 in 1 mi SSE 11.2 mph - - Snow Snow
6:00 AM 30.2 °F 19.1 °F 28.4 °F 93% 29.56 in 0.8 mi South 15.7 mph 22.4 mph N/A Snow Snow
6:30 AM 30.2 °F 19.1 °F 28.4 °F 93% 29.56 in 1.4 mi South 15.7 mph 22.4 mph N/A Snow Snow
7:00 AM 30.2 °F 19.9 °F 30.2 °F 100% 29.53 in 1.4 mi South 13.4 mph 20.1 mph N/A Snow Snow
7:30 AM 30.2 °F 19.9 °F 30.2 °F 100% 29.53 in 1.4 mi South 13.4 mph 20.1 mph N/A Snow Snow
8:00 AM 30.2 °F 19.9 °F 28.4 °F 93% 29.53 in - South 13.4 mph 20.1 mph N/A Snow Light Snow
8:30 AM 30.2 °F 19.9 °F 28.4 °F 93% 29.53 in 0.7 mi South 13.4 mph 20.1 mph N/A Snow Snow
8:45 AM 30.2 °F 19.9 °F 28.4 °F 93% 29.53 in 1.1 mi South 13.4 mph 20.1 mph N/A Snow Snow
9:00 AM 29 °F - 28 °F 97% 29.56 in 1 mi SSE 8.9 mph - - Snow Snow
9:00 AM 28.4 °F 17.6 °F 28.4 °F 100% 29.53 in 0.7 mi South 13.4 mph 20.1 mph N/A Snow Snow
9:11 AM 28.4 °F 17.6 °F 28.4 °F 100% 29.53 in 0.6 mi South 13.4 mph 20.1 mph N/A Snow Heavy Snow
9:20 AM 28.4 °F 17.6 °F 28.4 °F 100% 29.53 in 0.9 mi South 13.4 mph 20.1 mph N/A Snow Snow
9:30 AM 28.4 °F 17.6 °F 28.4 °F 100% 29.53 in 1.2 mi South 13.4 mph 20.1 mph N/A Snow Snow
10:00 AM 28.4 °F 17.6 °F 28.4 °F 100% 29.50 in 0.4 mi South 13.4 mph 20.1 mph N/A Snow Heavy Snow
10:20 AM 28.4 °F 17.6 °F 28.4 °F 100% 29.53 in 1.2 mi South 13.4 mph 20.1 mph N/A Snow Snow
10:30 AM 28.4 °F 17.6 °F 28.4 °F 100% 29.53 in 1.3 mi South 13.4 mph 20.1 mph N/A Snow Snow
10:51 AM 28.4 °F 17.6 °F 28.4 °F 100% 29.53 in 0.5 mi South 13.4 mph 20.1 mph N/A Snow Heavy Snow
11:00 AM 28.4 °F 17.6 °F 28.4 °F 100% 29.50 in 0.4 mi South 13.4 mph 20.1 mph N/A Snow Heavy Snow
11:30 AM 28.4 °F 17.6 °F 28.4 °F 100% 29.50 in 0.6 mi South 13.4 mph 20.1 mph N/A Snow Heavy Snow
12:00 PM 28 °F - 28 °F 98% 29.55 in 0 mi South 6.7 mph - - Snow Heavy Snow
12:00 PM 28.4 °F 18.7 °F 28.4 °F 100% 29.50 in 0.8 mi South 11.2 mph 17.9 mph N/A Snow Snow
12:30 PM 28.4 °F 18.7 °F 28.4 °F 100% 29.50 in 1.2 mi South 11.2 mph 17.9 mph N/A Snow Snow
1:00 PM 30.2 °F 20.9 °F 28.4 °F 93% 29.50 in 1.1 mi South 11.2 mph 17.9 mph N/A Snow Snow Showers
1:30 PM 30.2 °F 20.9 °F 28.4 °F 93% 29.50 in 1.2 mi South 11.2 mph 17.9 mph N/A Snow Snow Showers
2:00 PM 30.2 °F 19.9 °F 28.4 °F 93% 29.50 in 1.1 mi South 13.4 mph - N/A Snow Snow Showers
2:30 PM 30.2 °F 19.9 °F 28.4 °F 93% 29.50 in 0.7 mi South 13.4 mph - N/A Snow Snow Showers
3:00 PM 29 °F - 28 °F 92% 29.54 in 2 mi South 4.5 mph - - Snow Snow
3:00 PM 30.2 °F 19.9 °F 28.4 °F 93% 29.50 in 0.7 mi South 13.4 mph - N/A Snow Snow Showers
3:10 PM 30.2 °F 19.9 °F 28.4 °F 93% 29.50 in 0.6 mi SSW 13.4 mph - N/A Snow Heavy Snow Showers
3:23 PM 30.2 °F 19.9 °F 28.4 °F 93% 29.50 in 0.7 mi SSW 13.4 mph - N/A Snow Snow Showers
3:30 PM 30.2 °F 19.9 °F 28.4 °F 93% 29.50 in 0.9 mi SSW 13.4 mph - N/A Snow Snow Showers
4:00 PM 30.2 °F 19.9 °F 30.2 °F 100% 29.50 in 1.2 mi SSW 13.4 mph - N/A Snow Snow Showers
4:20 PM 30.2 °F 20.9 °F 28.4 °F 93% 29.50 in - SSW 11.2 mph - N/A Snow Light Snow Showers
4:30 PM 30.2 °F 22.1 °F 30.2 °F 100% 29.50 in 2.5 mi SSW 8.9 mph - N/A Snow Light Snow Showers
4:50 PM 32.0 °F 25.7 °F 30.2 °F 93% 29.50 in - SW 6.7 mph - N/A   Overcast
5:00 PM 32.0 °F 24.3 °F 30.2 °F 93% 29.50 in - SSW 8.9 mph - N/A   Overcast
5:30 PM 32.0 °F 24.3 °F 30.2 °F 93% 29.50 in - SW 8.9 mph - N/A   Overcast
6:00 PM 31 °F - 31 °F 97% 29.52 in 2 mi SSW 2.2 mph - -   Mist
6:00 PM 32.0 °F 24.3 °F 32.0 °F 100% 29.50 in 1.6 mi SW 8.9 mph - N/A   Overcast
6:30 PM 32.0 °F 25.7 °F 32.0 °F 100% 29.50 in 1.4 mi SSW 6.7 mph - N/A   Overcast
6:49 PM 32.0 °F 27.6 °F 32.0 °F 100% 29.50 in 0.5 mi SSW 4.5 mph - N/A Fog Fog
7:00 PM 32.0 °F 25.7 °F 32.0 °F 100% 29.50 in 0.7 mi SSW 6.7 mph - N/A   Overcast
7:18 PM 32.0 °F 25.7 °F 32.0 °F 100% 29.50 in 1.1 mi SSW 6.7 mph - N/A   Mostly Cloudy
7:30 PM 32.0 °F 25.7 °F 32.0 °F 100% 29.50 in 1.1 mi SSW 6.7 mph - N/A   Mostly Cloudy
8:00 PM 33.8 °F 27.9 °F 33.8 °F 100% 29.50 in 1.2 mi SSW 6.7 mph - N/A   Mostly Cloudy
8:30 PM 33.8 °F 26.5 °F 33.8 °F 100% 29.47 in 1.6 mi SW 8.9 mph - N/A Rain Light Rain Showers
9:00 PM 33 °F - 32 °F 96% 29.52 in 1 mi SW 2.2 mph - -   Mist
9:00 PM 33.8 °F 25.4 °F 33.8 °F 100% 29.47 in 1.1 mi WSW 11.2 mph - N/A   Overcast
10:00 PM 33.8 °F 26.5 °F 33.8 °F 100% 29.47 in - SW 8.9 mph - N/A   Overcast
11:00 PM 33.8 °F 25.4 °F 33.8 °F 100% 29.47 in - SW 11.2 mph - N/A   Overcast